This is the latest recevied weather packets stored in our database for station/object DO5DHA-11. If no packets are shown the sender has not sent any weather packets the latest 10 day(s).
| Time | Temp. | Humidity | Pressure | Rain* | Wind** | Luminosity | Snow |
|---|---|---|---|---|---|---|---|
| 1777811644 | 25.56° C | 36% | 1012.5 hPa | 0 mm | - | - | - |
| 1777811344 | 25.56° C | 37% | 1012.5 hPa | 0 mm | - | - | - |
| 1777811044 | 25° C | 37% | 1012.5 hPa | 0 mm | - | - | - |
| 1777810745 | 25° C | 37% | 1012.4 hPa | 0 mm | - | - | - |
| 1777810444 | 24.44° C | 38% | 1012.4 hPa | 0 mm | - | - | - |
| 1777810144 | 23.89° C | 38% | 1012.2 hPa | 0 mm | - | - | - |
| 1777809844 | 23.89° C | 39% | 1012.5 hPa | 0 mm | - | - | - |
| 1777809544 | 23.33° C | 41% | 1012.5 hPa | 0 mm | - | - | - |
| 1777809244 | 22.78° C | 41% | 1012.7 hPa | 0 mm | - | - | - |
| 1777808944 | 22.78° C | 41% | 1012.7 hPa | 0 mm | - | - | - |
| 1777808644 | 22.78° C | 40% | 1012.7 hPa | 0 mm | - | - | - |
| 1777808344 | 22.22° C | 40% | 1012.7 hPa | 0 mm | - | - | - |
| 1777808044 | 22.22° C | 40% | 1012.7 hPa | 0 mm | - | - | - |
| 1777807744 | 22.22° C | 39% | 1012.7 hPa | 0 mm | - | - | - |
| 1777807444 | 22.78° C | 39% | 1012.7 hPa | 0 mm | - | - | - |
| 1777807144 | 22.78° C | 38% | 1012.7 hPa | 0 mm | - | - | - |
| 1777806844 | 22.78° C | 38% | 1012.7 hPa | 0 mm | - | - | - |
| 1777806544 | 22.78° C | 37% | 1012.5 hPa | 0 mm | - | - | - |
| 1777806244 | 22.78° C | 37% | 1012.5 hPa | 0 mm | - | - | - |
| 1777805944 | 23.33° C | 37% | 1012.7 hPa | 0 mm | - | - | - |
| 1777805644 | 23.33° C | 36% | 1012.7 hPa | 0 mm | - | - | - |
| 1777805344 | 23.89° C | 36% | 1013 hPa | 0 mm | - | - | - |
| 1777805044 | 23.89° C | 34% | 1012.9 hPa | 0 mm | - | - | - |
| 1777804744 | 24.44° C | 35% | 1012.7 hPa | 0 mm | - | - | - |
| 1777804444 | 25° C | 35% | 1012.7 hPa | 0 mm | - | - | - |
* Rain latest hour (hover to see other rain measurements)
** Current wind speed in m/s (hover to see current wind gust speed)